Location: Rounton
(54.4000°N, 1.3500°W)
Time: 14:25:08
(UTC+00:00)

Transit 4A - Pass Details

Date: 01 December 2021
Orbit: 864 x 981 km, 66.8° (Epoch: 20 January)

Event Time Altitude Azimuth Distance (km) Brightness Sun altitude
Rises 04:25:40 0° 318° (NW) 3,591 - -30.4°
Reaches altitude 10° 04:28:11 10° 316° (NW) 2,661 - -30.1°
Maximum altitude 04:34:22 71° 234° (SW) 1,013 - -29.2°
Exits shadow 04:35:13 62° 186° (S) 1,072 8.0 -29.0°
Drops below altitude 10° 04:40:40 10° 152° (SSE) 2,713 10.6 -28.2°
Sets 04:43:15 0° 150° (SSE) 3,665 11.4 -27.9°
